[[{"header":{"parameterUnit":"m.s-1","parameterCategory":1,"la1":30.2991,"la2":30.254,"lo1":-89.0895,"lo2":-89.0444,"dy":0.0017,"dx":0.0017,"nx":28,"ny":28,"refTime":"2024-08-24T03:00:00:Z","depth":0,"parameterNumber":2,"parameterNumberName":"U-component_of_WINDS"},"data":[0,0,0,0,0,0,0,0,0,0,0,0,0,0,0,0,0,0,0,0,0,0,0,0,0,0,0,0,0,0,0,0,0,0,0,0,0,0,0,0,0,0,0,0,0,0,0,0,0,0,0,0,0,0,0,0,0,0,-0.1955,-0.1955,0,-0.1987,-0.1988,-0.1988,-0.1964,-0.1963,-0.1962,-0.1961,-0.1999,-0.2001,-0.2003,0,0,0,0,0,0,0,0,0,0,0,0,0,-0.1876,-0.1877,-0.1955,-0.1955,-0.1956,-0.1987,-0.1988,-0.1988,-0.1965,-0.1963,-0.1962,-0.1961,-0.1998,-0.2,-0.2003,0,0,0,0,0,0,0,0,0,0,0,0,0,-0.1909,-0.1878,-0.1955,-0.1948,-0.1947,-0.1987,-0.1988,-0.1988,-0.1965,-0.1963,-0.1962,-0.196,-0.1997,-0.2,-0.2003,-0.2053,0,0,-0.2012,-0.2013,0,0,0,0,0,0,0,0,-0.1908,-0.1912,-0.1948,-0.1948,-0.1948,-0.197,-0.1973,-0.201,-0.1965,-0.1958,-0.1961,-0.1959,-0.1991,-0.1994,-0.2004,-0.2055,-0.2056,-0.2012,-0.2014,-0.2015,-0.2016,0,0,0,0,0,0,0,-0.1905,-0.1911,-0.1968,-0.1949,-0.1949,-0.1944,-0.1947,-0.198,-0.1983,-0.1959,-0.1957,-0.1961,-0.199,-0.2001,-0.2005,-0.2057,-0.2012,-0.2015,-0.2017,-0.2018,-0.2151,-0.2153,0,0,0,0,0,0,-0.1903,-0.1909,-0.1967,-0.1969,-0.1923,-0.1947,-0.195,-0.1965,-0.1983,-0.1984,-0.1962,-0.196,-0.1997,-0.2001,-0.2006,-0.2066,-0.2015,-0.2018,-0.202,-0.2149,-0.2152,-0.2154,0,0,0,0,0,0,-0.1901,-0.1908,-0.1965,-0.1938,-0.1945,-0.195,-0.1966,-0.1966,-0.1977,-0.1985,-0.1986,-0.1973,-0.1996,-0.2002,-0.2041,-0.2067,-0.202,-0.2022,-0.2147,-0.215,-0.2153,-0.2187,0,0,0,0,0,0,-0.1899,-0.1908,-0.1926,-0.1939,-0.1947,-0.2,-0.1968,-0.1968,-0.1981,-0.1978,-0.1995,-0.1996,-0.1995,-0.2037,-0.2044,-0.207,-0.2025,-0.2145,-0.2149,-0.2152,-0.2184,-0.219,-0.2196,0,0,0,0,0,-0.1896,-0.1935,-0.1927,-0.1934,-0.197,-0.2001,-0.2006,-0.2002,-0.1984,-0.2003,-0.2008,-0.1996,-0.2063,-0.2041,-0.2049,-0.2077,-0.2144,-0.2148,-0.2151,-0.2181,-0.2189,-0.2196,0,0,0,0,0,0,-0.1927,-0.1937,-0.1928,-0.1972,-0.1986,-0.1997,-0.2021,-0.2011,-0.2031,-0.2028,-0.2023,-0.2027,-0.2069,-0.2077,-0.2053,-0.2126,-0.21,-0.2106,-0.212,-0.2128,-0.2134,-0.2132,-0.2027,0,0,0,0,0,-0.1939,-0.1962,-0.197,-0.2008,-0.2015,-0.2017,-0.203,-0.2026,-0.2041,-0.2047,-0.2055,-0.2071,-0.2095,-0.2112,-0.2135,-0.2184,-0.2188,-0.2207,-0.2213,-0.2218,-0.2224,-0.2251,-0.226,-0.2167,-0.2166,-0.2166,0,0,-0.1964,-0.1972,-0.1987,-0.2014,-0.2025,-0.205,-0.2022,-0.205,-0.207,-0.2052,-0.209,-0.2096,-0.2113,-0.2158,-0.2178,-0.2166,-0.225,-0.2223,-0.2227,-0.223,-0.2256,-0.2265,-0.2273,-0.2169,-0.2169,-0.2168,0,0,-0.2022,-0.203,-0.2063,-0.2073,-0.2088,-0.2089,-0.2097,-0.2109,-0.2113,-0.215,-0.2137,-0.2161,-0.2203,-0.2216,-0.2228,-0.229,-0.228,-0.2298,-0.2332,-0.2359,-0.2366,-0.2372,-0.2396,-0.2404,-0.2303,-0.2303,-0.2303,0,-0.2052,-0.2089,-0.2081,-0.2111,-0.2123,-0.2106,-0.214,-0.2151,-0.2174,-0.2183,-0.2168,-0.2221,-0.2231,-0.2279,-0.2294,-0.2304,-0.2314,-0.2297,-0.2365,-0.2372,-0.2378,-0.24,-0.2409,-0.2305,-0.2305,-0.2305,-0.2305,0,-0.2124,-0.215,-0.2175,-0.2196,-0.2211,-0.2243,-0.2241,-0.2258,-0.2252,-0.2255,-0.2294,-0.2305,-0.233,-0.2341,-0.2336,-0.2389,-0.238,-0.2365,-0.234,-0.2389,-0.241,-0.2418,-0.2309,-0.2308,-0.2307,-0.2307,0,0,-0.2205,-0.222,-0.2229,-0.2239,-0.2254,-0.2274,-0.2305,-0.2328,-0.2343,-0.2359,-0.2385,-0.2421,-0.2407,-0.2421,-0.2417,-0.244,-0.249,-0.2423,-0.2423,-0.2436,-0.255,-0.2562,-0.2572,-0.2483,-0.2484,-0.2486,-0.2548,0,-0.2265,-0.2317,-0.2312,-0.2362,-0.2386,-0.237,-0.2397,-0.241,-0.2413,-0.2435,-0.2439,-0.2464,-0.2443,-0.2452,-0.2474,-0.2479,-0.2513,-0.2475,-0.2509,-0.2511,-0.2507,-0.2582,-0.2595,-0.2654,-0.2556,-0.2558,-0.2559,0,-0.2343,-0.236,-0.2412,-0.2423,-0.2433,-0.2457,-0.2478,-0.2499,-0.2513,-0.2514,-0.2529,-0.2521,-0.2553,-0.2525,-0.257,-0.2544,-0.2558,-0.2563,-0.2565,-0.2569,-0.2539,-0.259,-0.2673,-0.2682,-0.2571,-0.257,-0.257,0,-0.2397,-0.2433,-0.247,-0.2478,-0.2491,-0.2509,-0.2516,-0.2528,-0.2542,-0.2561,-0.257,-0.2593,-0.2605,-0.2623,-0.2622,-0.2602,-0.2669,-0.2641,-0.2671,-0.2671,-0.2687,-0.2687,-0.2775,-0.2694,-0.2694,-0.2693,-0.2693,0,-0.2466,-0.2499,-0.2494,-0.2517,-0.2554,-0.2547,-0.2584,-0.2589,-0.26,-0.2624,-0.2611,-0.2634,-0.263,-0.2654,-0.2653,-0.2691,-0.2697,-0.2699,-0.2699,-0.2701,-0.2701,-0.2711,-0.2708,-0.2696,-0.2695,-0.2695,-0.2694,0,-0.2534,-0.2532,-0.2571,-0.2579,-0.2583,-0.261,-0.2618,-0.264,-0.2641,-0.2671,-0.2678,-0.2681,-0.2708,-0.2708,-0.2739,-0.2738,-0.2785,-0.278,-0.278,-0.278,-0.2811,-0.2808,-0.291,-0.2923,-0.2832,-0.2833,-0.2834,0,-0.2579,-0.2604,-0.2615,-0.2629,-0.2637,-0.266,-0.2674,-0.2668,-0.2684,-0.2702,-0.2722,-0.2747,-0.2767,-0.2811,-0.2816,-0.284,-0.2836,-0.287,-0.284,-0.2841,-0.2838,-0.2837,-0.284,-0.2876,-0.2877,-0.2878,-0.2879,0,-0.2659,-0.2657,-0.2677,-0.2696,-0.2713,-0.2729,-0.2743,-0.2756,-0.2752,-0.277,-0.2796,-0.2812,-0.2842,-0.2868,-0.2891,-0.2899,-0.2889,-0.2888,-0.2896,-0.29,-0.29,-0.2902,-0.2798,-0.2886,-0.2885,-0.2885,-0.2884,-0.2884,-0.2718,-0.274,-0.2751,-0.2773,-0.2783,-0.2796,-0.2817,-0.282,-0.2842,-0.2866,-0.2861,-0.2891,-0.2905,-0.2934,-0.2944,-0.2968,-0.2957,-0.2969,-0.2972,-0.2976,-0.298,-0.2894,-0.2972,-0.2972,-0.2972,-0.2972,-0.2971,0,-0.2799,-0.2805,-0.2825,-0.2845,-0.2863,-0.2849,-0.2864,-0.2881,-0.2907,-0.292,-0.2939,-0.297,-0.2995,-0.3002,-0.3026,-0.3044,-0.304,-0.3051,-0.305,-0.3052,-0.2988,-0.2979,-0.3053,-0.3053,-0.3053,-0.3053,-0.3053,-0.3053,-0.2843,-0.2879,-0.2877,-0.2918,-0.2924,-0.2952,-0.2962,-0.2975,-0.2985,-0.3019,-0.3039,-0.3042,-0.3053,-0.3078,-0.31,-0.3102,-0.3112,-0.3125,-0.3125,-0.3065,-0.3057,-0.3049,-0.304,-0.3127,-0.3127,-0.3187,-0.3188,-0.3188]},{"header":{"parameterUnit":"m.s-1","parameterCategory":1,"la1":30.2991,"la2":30.254,"lo1":-89.0895,"lo2":-89.0444,"dy":0.0017,"dx":0.0017,"nx":28,"ny":28,"refTime":"2024-08-24T03:00:00:Z","depth":0,"parameterNumber":3,"parameterNumberName":"V-component_of_WINDS"},"data":[0,0,0,0,0,0,0,0,0,0,0,0,0,0,0,0,0,0,0,0,0,0,0,0,0,0,0,0,0,0,0,0,0,0,0,0,0,0,0,0,0,0,0,0,0,0,0,0,0,0,0,0,0,0,0,0,0,0,1.1063,1.1063,0,1.1046,1.1046,1.1046,1.1014,1.1013,1.1012,1.1012,1.0995,1.0995,1.0995,0,0,0,0,0,0,0,0,0,0,0,0,0,1.1067,1.1067,1.1063,1.1063,1.1062,1.1046,1.1046,1.1046,1.1014,1.1013,1.1012,1.1012,1.0995,1.0995,1.0995,0,0,0,0,0,0,0,0,0,0,0,0,0,1.1059,1.1067,1.1063,1.1044,1.1043,1.1046,1.1046,1.1046,1.1014,1.1013,1.1012,1.1011,1.0995,1.0995,1.0995,1.1016,0,0,1.0996,1.0996,0,0,0,0,0,0,0,0,1.106,1.1059,1.1047,1.1046,1.1044,1.1031,1.1041,1.1036,1.1014,1.1025,1.1012,1.1011,1.1008,1.1007,1.1006,1.1015,1.1014,1.0996,1.0996,1.0996,1.0996,0,0,0,0,0,0,0,1.106,1.1059,1.1056,1.1047,1.1045,1.1037,1.1035,1.104,1.1022,1.1024,1.1021,1.102,1.1007,1.1006,1.1005,1.1014,1.0996,1.0996,1.0996,1.0997,1.1038,1.1039,0,0,0,0,0,0,1.1063,1.106,1.1057,1.1056,1.1049,1.1038,1.1035,1.1036,1.1022,1.1019,1.1021,1.1019,1.1006,1.1005,1.1005,1.1027,1.0996,1.0997,1.0997,1.1037,1.1038,1.1039,0,0,0,0,0,0,1.1064,1.1063,1.1057,1.1057,1.1056,1.1039,1.104,1.1036,1.1035,1.1019,1.1016,1.1023,1.1005,1.1004,1.1013,1.1026,1.0997,1.0997,1.1036,1.1038,1.1039,1.1072,0,0,0,0,0,0,1.1064,1.1064,1.1071,1.1058,1.1056,1.1066,1.1041,1.1037,1.1036,1.1033,1.1021,1.1018,1.1004,1.1013,1.1013,1.1026,1.0997,1.1035,1.1037,1.1039,1.107,1.1075,1.1079,0,0,0,0,0,1.1064,1.1081,1.1072,1.1072,1.1065,1.1067,1.1066,1.105,1.1037,1.1044,1.1034,1.1018,1.1025,1.1014,1.1014,1.1027,1.1034,1.1036,1.1038,1.1068,1.1074,1.1079,0,0,0,0,0,0,1.1097,1.1079,1.1068,1.1082,1.1076,1.1062,1.1071,1.1057,1.1055,1.1052,1.1032,1.103,1.1041,1.1035,1.1024,1.1045,1.1027,1.1029,1.1049,1.1054,1.1059,1.106,1.0997,0,0,0,0,0,1.1106,1.1109,1.1093,1.1107,1.1104,1.1088,1.1088,1.1076,1.107,1.1067,1.1058,1.1052,1.1052,1.1053,1.1053,1.1069,1.1066,1.1078,1.1082,1.1086,1.1088,1.1095,1.11,1.1047,1.1047,1.1047,0,0,1.1124,1.1115,1.1118,1.1113,1.1107,1.1111,1.1086,1.1091,1.1093,1.1068,1.1075,1.1068,1.106,1.1073,1.1078,1.1068,1.1102,1.1089,1.1092,1.1092,1.1098,1.1103,1.1108,1.1048,1.1048,1.1048,0,0,1.1159,1.1153,1.1163,1.1158,1.1149,1.1138,1.114,1.1128,1.1122,1.1129,1.111,1.1112,1.1114,1.1109,1.1107,1.1139,1.1125,1.114,1.1163,1.117,1.1175,1.1178,1.119,1.1194,1.1142,1.1142,1.1142,0,1.1183,1.1188,1.117,1.1176,1.1174,1.1151,1.1161,1.1157,1.1149,1.1148,1.1137,1.1138,1.1131,1.1142,1.115,1.1149,1.1151,1.1141,1.1175,1.1179,1.1182,1.1193,1.1197,1.1144,1.1144,1.1144,1.1144,0,1.1217,1.1221,1.123,1.1222,1.1221,1.123,1.1213,1.1214,1.1203,1.1193,1.12,1.1191,1.1188,1.119,1.1178,1.1199,1.1193,1.1179,1.116,1.1189,1.1199,1.1203,1.1147,1.1146,1.1146,1.1145,0,0,1.1273,1.1255,1.1259,1.1255,1.1243,1.1246,1.1252,1.1249,1.1251,1.1246,1.1251,1.1253,1.124,1.1237,1.1225,1.1231,1.1257,1.1217,1.1216,1.1224,1.1279,1.1289,1.1294,1.1248,1.1248,1.1249,1.1279,0,1.1305,1.1315,1.13,1.1314,1.1316,1.1294,1.13,1.1294,1.1285,1.1286,1.1275,1.1277,1.126,1.1258,1.1264,1.1253,1.1268,1.1251,1.1252,1.1252,1.1254,1.1299,1.131,1.1339,1.1283,1.1283,1.1284,0,1.1344,1.1341,1.1355,1.1342,1.1343,1.1348,1.1344,1.1345,1.1338,1.133,1.1327,1.1313,1.1318,1.13,1.1307,1.1296,1.1295,1.129,1.1291,1.129,1.127,1.1299,1.1348,1.1352,1.129,1.1289,1.1289,0,1.1382,1.1382,1.139,1.1387,1.1373,1.1377,1.1371,1.1363,1.1362,1.1358,1.1357,1.1354,1.1353,1.1351,1.1336,1.1324,1.1345,1.1325,1.1338,1.1339,1.1344,1.1344,1.1393,1.1344,1.1344,1.1344,1.1344,0,1.142,1.1429,1.1407,1.1412,1.1422,1.1404,1.1414,1.1406,1.1398,1.1401,1.1382,1.1385,1.1365,1.1366,1.1354,1.1362,1.1361,1.1356,1.1352,1.1357,1.1358,1.1356,1.1354,1.1345,1.1345,1.1345,1.1344,0,1.1465,1.145,1.1457,1.1443,1.144,1.1448,1.1435,1.1439,1.1429,1.1433,1.1433,1.1416,1.1416,1.1401,1.1398,1.139,1.1402,1.1396,1.1405,1.1403,1.1417,1.1416,1.1467,1.1472,1.1421,1.1421,1.1422,0,1.1489,1.1496,1.1482,1.1483,1.1478,1.1479,1.1478,1.146,1.146,1.1451,1.1456,1.1455,1.1453,1.1454,1.1441,1.1439,1.1432,1.145,1.1431,1.1436,1.1432,1.1431,1.1432,1.1454,1.1454,1.1455,1.1455,0,1.1535,1.1527,1.1526,1.1523,1.1522,1.1518,1.1513,1.1515,1.1495,1.1496,1.1496,1.1494,1.1491,1.1489,1.1484,1.1478,1.1464,1.1461,1.1464,1.1469,1.1474,1.1471,1.1415,1.146,1.146,1.1459,1.1459,1.1459,1.157,1.1575,1.1566,1.1565,1.156,1.1555,1.1558,1.1548,1.1548,1.1544,1.1533,1.1534,1.1526,1.1518,1.1513,1.1514,1.1505,1.1509,1.151,1.1511,1.1514,1.1474,1.1513,1.1513,1.1512,1.1512,1.1512,0,1.1614,1.1607,1.1607,1.16,1.16,1.1586,1.158,1.158,1.1582,1.1575,1.1573,1.1573,1.1571,1.1559,1.1556,1.1559,1.1552,1.1559,1.1558,1.1557,1.1522,1.152,1.1564,1.1564,1.1564,1.1564,1.1564,1.1564,1.1637,1.1644,1.1635,1.164,1.1632,1.1634,1.1631,1.1627,1.1622,1.1622,1.1621,1.1612,1.1603,1.1599,1.1597,1.1593,1.1593,1.1602,1.1596,1.1564,1.1559,1.1554,1.1552,1.1602,1.1602,1.163,1.1631,1.1631]}]]